SCP
0 0 0 0 0 0 0 0 -0 0 0 0 0 0 0 0 0 0 0 0 -0 -0 0 0 0 0 0 0 0 0 0 -0 -0 -0 -0 -0 -0 -0 -0 -0 -0 -0 -0 -0 -0 -0 -0 -0 0
0 0 0 0 0 0 0 0 0 0 0 0 0 0 0 0 0 0 0 0 -0 0 0 0 0 0 -0 -0 -0 -0 -0 -0 -0 -0 -0 -0 -0 -0 0 0 0 0 0 0 0 0 -0 -0 0
0 0 0 0 0 0 0 0 0 0 0 0 0 0 0 0 0 -0 0 0 -0 0 0 0 0 -0 -0 -0 -0 -0 -0 -0 -0 -0 -0 -0 -0 -0 -0 -0 -0 -0 0 0 0 0 0 0 -0
0 0 0 0 0 0 0 0 0 0 0 0 0 0 0 0 0 0 0 0 0 0 0 0 -0 -0 -0 -0 -0 -0 -0 -0 -0 -0 -0 -0 -0 -0 -0 0 -0 0 0 0 0 0 0 -0 -0
0 0 0 0 0 0 0 0 0 0 0 0 0 0 0 0 0 0 0 0 0 0 0 0 0 0 -0 -0 -0 -0 -0 -0 -0 -0 0 0 0 0 0 0 0 0 0 0 0 0 0 0 -0
0 0 0 0 0 0 0 -0 0 0 0 0 0 0 0 0 0 0 0 0 0 0 0 0 0 0 0 -0 -0 -0 -0 -0 -0 -0 0 0 0 0 -0 0 0 0 0 0 0 0 0 0 0
0 0 0 0 0 0 0 0 0 0 0 0 0 0 0 0 0 0 0 0 0 0 0 0 0 0 0 0 0 -0 -0 -0 -0 -0 0 0 0 0 0 0 0 -0 -0 -0 -0 0 0 0 0
0 0 0 0 0 0 0 0 0 0 0 0 0 0 0 0 0 0 0 0 0 0 0 0 0 0 0 0 0 0 0 0 0 0 -0 -0 -0 0 -0 0 0 0 -0 -0 -0 -0 0 0 0
0 0 0 0 0 0 0 0 0 0 0 0 0 0 0 0 0 0 0 0 0 0 0 0 0 0 0 0 0 0 0 -0 -0 -0 -0 -0 -0 0 0 0 0 0 0 0 0 0 0 0 0
0 0 0 0 0 0 0 0 0 0 0 0 0 0 0 0 0 0 0 0 0 0 0 0 0 0 -0 0 -0 -0 -0 -0 -0 -0 0 0 -0 0 -0 0 0 0 0 0 0 0 0 0 0
0 0 0 0 0 0 0 0 0 0 0 0 0 0 0 0 0 0 0 0 0 0 0 0 0 0 0 0 -0 -0 -0 -0 -0 -0 -0 -0 -0 0 0 0 0 0 0 0 0 0 0 0 0
0 0 0 0 -0 0 0 0 0 0 0 0 0 0 0 0 0 0 0 0 0 0 0 0 -0 0 0 0 -0 -0 0 0 -0 -0 -0 -0 -0 0 0 0 0 0 0 0 0 0 0 0 0
0 0 0 0 0 0 0 0 0 0 0 0 0 0 0 0 0 0 0 0 0 0 0 0 -0 0 0 0 0 0 0 -0 -0 -0 0 0 0 0 0 0 0 0 0 0 0 0 0 0 0
0 0 0 0 0 0 0 0 0 0 0 0 0 0 0 0 0 0 0 0 0 0 0 0 -0 0 0 0 0 0 0 0 0 0 0 0 0 0 0 0 0 0 0 0 0 0 0 0 0
0 0 0 0 0 0 0 0 0 0 0 0 0 0 0 0 0 0 0 0 0 0 0 0 0 0 0 0 0 0 0 0 0 0 0 0 0 0 0 0 0 0 0 0 0 0 0 0 0
0 0 0 0 0 0 0 0 0 0 0 0 0 0 0 0 0 0 0 0 0 0 0 0 0 0 0 0 0 0 0 0 0 0 0 0 0 0 0 0 0 0 0 0 0 0 0 0 0
0 0 0 0 0 0 0 0 0 0 0 0 0 0 0 0 0 0 0 0 0 0 0 0 0 0 0 0 0 0 0 0 0 0 0 0 0 0 0 0 0 0 0 0 0 0 0 0 0
0 0 0 0 0 0 0 0 0 0 0 0 0 0 0 0 0 0 0 0 0 0 0 0 0 0 0 0 0 0 0 0 0 0 0 0 0 0 0 0 0 0 0 0 0 0 0 0 0
0 0 0 0 0 0 0 0 0 0 0 0 0 0 0 0 0 0 0 0 0 0 0 0 0 0 0 0 0 0 0 0 0 0 0 0 0 0 0 0 0 0 0 0 0 0 0 0 0
0 0 0 0 0 0 0 0 0 0 0 0 0 0 0 0 0 0 0 0 0 0 0 0 0 0 0 0 0 0 0 0 0 0 0 0 0 0 0 0 0 0 0 0 0 0 0 0 0
0 0 0 0 0 0 0 0 0 0 0 0 0 0 0 0 0 0 0 0 0 0 0 0 0 0 0 0 0 0 0 0 0 0 0 0 0 0 0 0 0 0 0 0 0 0 0 0 0
0 0 0 0 0 0 0 0 0 0 0 0 0 0 0 0 0 0 0 0 0 0 0 0 0 0 0 0 0 0 0 0 0 0 0 0 0 0 0 0 0 0 0 0 0 0 0 0 0
0 0 0 0 0 0 0 0 0 0 0 0 0 0 0 0 0 0 0 0 0 0 0 0 0 0 0 0 0 0 0 0 0 0 0 0 0 0 0 0 0 0 0 0 0 0 0 0 0
-0 -0 -0 0 0 0 0 0 0 0 0 0 0 0 0 0 0 0 0 0 0 0 0 0 0 0 0 0 0 0 0 0 0 0 0 0 0 0 0 0 0 0 0 0 0 0 0 0 0
0 0 0 0 0 0 0 0 0 0 0 0 0 0 0 0 0 0 0 0 0 0 0 0 0 0 0 0 0 0 0 0 0 0 0 0 0 0 0 0 0 0 0 0 0 0 0 0 0
0 0 -0 0 0 0 0 0 0 0 0 0 0 0 0 0 0 0 0 0 0 0 0 0 0 0 0 0 0 0 0 0 0 0 0 0 0 0 0 0 0 0 0 0 0 0 0 0 0
0 0 0 0 0 0 0 0 0 0 0 0 0 0 0 0 0 0 0 0 0 0 0 0 0 0 0 0 0 0 0 0 0 0 0 0 0 0 0 0 0 0 0 0 0 0 0 0 0
0 0 0 0 0 0 0 0 0 0 0 0 0 0 0 0 0 0 0 0 0 0 0 0 0 0 0 0 0 0 0 0 0 0 0 0 0 0 0 0 0 0 0 0 0 0 0 0 0
0 0 0 0 0 0 0 0 0 0 0 0 0 0 0 0 0 0 0 0 0 0 0 0 0 0 0 0 0 0 0 0 0 0 0 0 0 0 0 0 0 0 0 0 0 0 0 0 0
0 0 0 0 0 0 0 0 0 0 0 -0 0 -0 0 0 0 0 0 0 0 0 0 0 0 0 0 0 0 0 0 0 0 0 0 0 0 0 0 0 0 0 0 0 0 0 0 0 0
Wind_Speed_500mb
7 8 8 7 6 9 19 8 32 10 13 14 22 21 26 33 12 15 41 32 35 36 43 37 29 27 27 26 28 28 26 31 22 17 17 19 20 20 20 21 21 21 22 22 21 20 21 20 20
5 4 12 11 9 14 16 15 34 15 24 25 19 8 13 11 14 41 40 40 30 32 43 36 29 29 29 29 32 31 30 28 25 18 14 17 16 15 16 17 18 20 21 19 18 20 20 20 22
15 10 7 7 11 21 7 3 17 28 28 21 11 21 16 12 34 31 38 51 30 29 30 35 32 35 33 32 32 29 27 26 18 9 6 9 11 12 12 15 14 17 17 17 18 19 19 19 20
13 10 13 9 24 32 9 9 29 20 8 7 31 18 19 21 25 26 51 47 30 42 35 35 35 38 35 30 28 26 22 16 9 3 3 5 7 10 12 13 14 16 17 16 16 16 16 17 17
16 14 8 15 32 34 13 6 27 17 23 18 14 18 27 17 23 45 50 45 40 37 31 36 39 39 33 28 24 20 16 11 7 5 3 6 10 12 14 15 14 13 13 13 14 14 16 18 21
15 13 8 18 31 20 9 48 24 22 24 24 33 26 16 23 38 47 47 41 37 30 36 38 41 38 32 27 22 17 13 10 7 7 9 11 13 13 13 12 12 12 12 13 15 17 18 19 20
26 9 19 31 31 7 22 8 15 14 22 15 34 14 18 40 41 47 44 40 37 29 37 39 41 36 30 26 22 17 12 11 12 13 15 15 13 12 11 12 12 13 14 16 17 18 20 21 24
34 11 24 32 25 4 21 12 9 25 11 25 8 13 18 54 47 48 44 40 40 31 31 41 38 33 27 23 21 16 13 15 17 17 15 13 12 12 11 11 12 14 15 16 18 20 22 24 26
25 9 20 33 24 10 17 7 6 15 28 15 7 17 15 70 55 52 51 45 45 41 27 30 31 28 24 21 21 17 16 17 17 16 12 10 10 10 8 11 13 13 16 19 20 23 25 26 26
24 17 27 25 17 9 14 12 23 9 26 14 23 25 36 70 62 60 58 54 50 46 39 30 27 23 16 12 18 21 19 14 14 14 14 8 4 3 6 8 11 14 17 20 21 25 26 29 34
25 24 28 10 16 28 12 8 3 14 14 29 43 43 54 63 61 56 51 50 53 52 49 45 42 26 33 20 18 20 18 14 10 9 8 6 2 5 7 13 16 20 21 25 28 31 33 35 38
10 52 38 20 19 26 4 7 7 15 10 16 44 41 58 62 61 53 42 45 55 50 46 40 36 29 25 20 10 9 11 10 10 8 6 4 2 6 8 12 15 20 23 25 26 30 28 31 30
41 18 35 29 17 20 11 11 3 4 14 18 46 43 57 56 53 48 40 33 41 44 46 45 38 30 28 24 25 14 11 11 7 3 4 1 2 6 10 15 16 15 19 23 32 28 31 30 30
55 51 20 35 23 13 7 7 8 11 21 32 35 44 53 54 52 47 43 38 40 35 36 42 41 36 36 34 24 21 15 12 11 5 2 3 6 9 13 12 13 17 21 25 27 29 28 32 26
27 40 24 45 22 10 13 13 12 20 27 34 31 34 46 48 49 48 45 39 40 39 34 35 40 38 31 29 25 21 19 14 8 3 3 7 9 11 12 14 18 22 22 17 22 22 26 28 25
22 20 36 32 24 12 7 10 19 29 36 35 35 35 41 46 48 46 44 40 41 41 40 40 39 38 32 29 25 22 17 12 10 9 12 13 13 13 15 15 22 19 20 22 20 22 23 24 25
14 11 32 27 31 13 15 11 19 42 33 29 36 32 39 42 44 46 47 39 42 43 39 40 38 36 33 29 27 22 19 20 20 19 16 13 12 13 16 18 17 16 17 20 20 20 23 25 26
17 12 37 28 30 35 20 16 12 19 35 24 38 34 38 45 47 43 43 41 39 38 36 34 35 33 33 31 28 27 27 25 20 16 16 15 12 13 17 14 11 11 14 15 17 20 21 25 28
11 29 18 28 15 34 33 24 15 30 29 33 49 46 37 41 45 47 50 43 42 37 36 33 35 31 32 30 29 28 27 23 20 18 14 12 13 13 11 9 8 10 12 16 19 20 23 28 35
22 23 38 18 15 3 24 24 20 17 29 36 36 46 43 43 49 50 49 45 42 42 39 34 31 35 30 23 20 24 25 23 18 15 12 9 8 5 4 5 7 11 14 16 20 25 27 30 36
13 8 11 8 14 5 11 25 34 16 21 35 30 18 40 51 55 56 51 47 43 42 40 39 42 40 35 34 36 34 29 21 18 13 9 5 1 3 5 8 10 12 15 20 25 29 32 32 29
4 3 5 6 28 20 14 13 28 27 16 18 37 37 36 48 55 57 49 45 47 50 49 50 44 40 41 41 39 33 27 26 18 10 5 6 5 5 7 9 11 15 19 23 28 30 31 30 31
9 15 11 5 4 6 7 5 22 30 28 25 30 52 54 51 54 51 48 48 48 45 45 41 39 37 35 31 28 33 30 22 13 13 12 8 6 5 6 8 13 20 26 29 28 27 26 28 27
21 11 10 7 2 5 12 4 10 24 32 27 34 52 62 64 59 52 48 48 45 41 41 39 38 38 40 39 35 31 22 19 21 18 12 8 6 6 8 16 22 26 27 28 28 28 28 28 25
9 6 4 4 3 1 3 15 13 7 16 7 33 50 56 67 71 63 51 43 42 40 40 40 39 39 37 34 32 28 25 23 17 12 7 7 7 12 17 21 26 27 26 26 26 27 27 27 28
18 17 4 1 5 5 7 7 6 10 12 15 25 57 64 61 56 50 46 46 43 44 42 38 36 36 37 37 38 36 31 22 17 16 13 10 13 18 24 29 26 23 22 24 26 27 27 27 27
9 8 5 10 3 6 6 9 11 14 9 14 36 55 51 46 42 48 45 44 43 39 39 40 42 45 46 44 40 34 29 25 22 18 16 23 29 31 23 21 18 19 22 24 25 26 27 27 28
3 13 7 5 8 6 7 6 5 13 18 17 21 40 48 48 50 45 43 41 44 45 47 48 47 46 44 41 37 33 20 14 10 11 12 23 23 20 15 15 17 20 23 24 23 25 28 29 32
6 7 5 0 2 2 7 5 6 13 24 24 23 41 51 55 50 45 40 48 51 53 53 54 51 49 42 30 17 9 7 2 5 19 16 16 14 14 14 16 17 20 21 22 25 27 29 31 32
2 6 8 5 7 0 6 2 7 11 20 38 35 49 50 48 44 47 57 61 61 56 54 48 32 20 17 6 3 10 12 22 20 21 15 14 15 15 16 16 18 20 20 23 25 27 29 29 31
Wind_Direction_500mb
15 67 22 289 254 230 239 205 249 139 144 63 66 50 98 49 26 116 140 155 174 169 153 151 147 144 137 141 141 140 137 136 122 104 88 66 59 65 77 86 99 96 92 85 79 74 65 56 48
330 310 313 267 240 246 236 133 262 101 98 105 95 99 71 79 85 133 138 151 173 165 154 157 155 150 141 136 140 138 136 135 116 99 65 46 49 64 79 91 99 95 84 79 72 62 53 46 43
352 311 265 220 238 249 258 69 115 99 120 142 104 50 57 93 124 133 154 143 165 149 162 163 162 156 147 134 137 134 134 132 127 114 58 38 48 71 87 91 88 91 83 70 59 52 45 39 33
322 267 262 251 252 244 126 291 114 120 119 150 114 84 82 130 136 156 145 146 149 139 183 165 162 159 158 152 145 141 141 146 144 125 70 67 85 88 88 87 76 65 67 60 51 41 31 25 19
309 269 251 232 254 264 125 64 154 165 151 167 168 88 103 110 145 141 144 144 155 170 167 165 161 154 161 160 154 151 151 157 167 172 143 108 96 91 88 87 87 74 61 47 34 23 16 12 12
292 241 257 248 242 251 293 172 162 184 158 135 108 110 120 135 143 146 144 149 154 167 155 155 159 161 161 163 165 166 169 171 168 144 119 108 107 107 101 91 72 53 38 26 18 13 10 8 7
258 271 258 257 246 137 264 141 180 150 136 162 129 115 138 146 155 149 145 151 151 159 152 150 155 160 161 163 168 170 167 159 142 127 117 120 118 103 83 64 49 35 23 16 9 3 0 358 356
258 269 268 254 268 174 318 180 218 156 100 119 152 142 155 154 160 148 148 157 155 155 165 153 153 159 162 167 167 160 148 141 138 135 132 122 105 79 59 50 33 23 13 6 358 354 352 348 344
257 247 234 251 249 205 198 235 204 89 125 108 97 94 162 154 158 153 155 169 159 154 161 157 159 159 164 167 164 155 147 145 146 137 120 100 92 66 42 28 18 8 360 353 348 345 343 339 341
237 210 240 242 344 110 195 261 151 148 137 114 102 129 145 149 160 160 167 174 162 162 166 168 154 146 137 164 164 166 161 160 154 145 119 108 82 55 4 1 359 353 345 341 339 338 340 339 341
233 218 229 260 65 315 161 195 129 203 169 172 154 156 155 154 163 167 182 178 173 170 172 168 160 167 161 184 175 176 174 172 150 121 141 138 65 22 0 354 348 347 342 340 339 347 342 338 341
243 219 238 257 121 287 231 68 196 238 88 146 173 175 160 163 168 172 180 180 175 179 179 176 163 163 168 168 167 185 165 159 159 156 160 118 65 357 353 344 341 344 340 340 331 328 323 320 326
212 230 217 251 167 244 313 245 268 233 146 110 160 164 162 167 170 173 175 185 178 185 184 180 161 172 172 175 176 191 173 166 150 132 126 111 324 337 340 337 341 328 325 312 316 319 323 328 331
204 217 246 229 218 225 263 268 111 201 133 139 156 161 166 170 171 172 172 179 177 176 184 178 167 182 188 182 180 179 167 172 173 176 227 298 319 325 324 331 315 316 312 312 320 322 330 330 333
199 194 231 232 193 232 224 247 202 154 145 147 151 161 168 173 173 174 174 182 174 175 180 181 176 180 187 178 174 168 178 178 157 181 308 291 307 313 321 311 312 314 308 319 312 320 321 326 325
163 184 215 208 188 213 221 243 187 159 146 156 160 162 173 175 176 173 173 174 176 168 180 184 184 182 180 172 172 172 178 163 173 188 232 264 291 305 294 294 308 312 315 321 328 325 333 336 340
187 181 199 181 199 213 192 245 140 155 147 164 155 162 177 178 179 180 173 179 178 170 182 186 182 179 174 172 165 170 174 182 203 219 248 265 281 290 302 314 318 317 318 332 339 343 347 345 345
203 198 194 188 189 206 202 243 139 166 143 192 164 170 181 184 185 178 168 175 171 174 182 186 179 179 179 181 170 179 189 199 226 238 247 268 279 295 306 313 320 330 337 347 353 353 351 341 347
243 198 206 177 193 192 190 223 180 169 172 202 164 166 182 191 188 174 174 172 172 175 173 185 178 181 181 189 182 193 202 225 230 243 264 285 302 307 310 330 347 351 356 0 358 3 359 346 344
259 203 206 203 126 358 198 204 235 164 185 183 160 166 178 183 180 183 173 175 174 170 174 181 184 186 191 191 191 214 219 228 231 236 251 273 293 309 350 10 15 7 9 7 2 356 355 349 348
350 350 162 185 186 283 309 217 203 207 184 179 157 188 176 179 179 175 176 177 179 178 179 180 184 185 177 187 197 202 215 227 218 220 240 252 156 64 41 24 18 19 8 356 350 346 342 345 356
276 173 359 347 163 201 222 212 207 197 189 160 178 194 184 179 173 180 176 172 179 177 180 189 194 192 193 202 211 219 216 215 217 211 188 138 103 57 35 28 16 1 351 344 338 342 344 346 348
145 155 191 19 184 119 204 218 208 185 206 178 174 179 182 190 174 172 170 178 188 188 187 188 191 190 189 191 196 198 206 204 195 161 148 128 106 80 45 11 356 348 342 339 342 346 346 351 358
136 138 94 79 104 185 187 223 256 185 195 176 181 182 182 169 168 168 177 183 184 181 182 185 185 184 184 189 189 197 202 182 162 155 146 116 80 45 11 356 344 339 341 342 347 352 356 357 359
124 115 107 150 161 142 280 187 263 15 356 174 174 170 167 152 156 160 169 177 175 175 176 181 183 179 179 182 181 173 163 150 141 125 117 97 59 17 354 340 337 339 345 348 352 352 352 349 350
184 169 114 5 157 110 359 199 255 86 40 11 121 135 132 147 158 163 169 174 174 175 176 173 169 165 158 153 148 143 135 133 129 110 89 59 24 356 334 328 328 336 346 349 348 346 346 347 347
160 186 312 101 279 107 202 252 282 145 104 85 99 117 126 137 146 152 165 173 172 168 163 160 157 150 144 141 135 131 126 105 86 69 20 335 323 309 304 313 328 336 343 343 343 341 341 343 346
236 132 84 333 146 185 178 262 228 158 156 147 129 126 131 137 145 154 168 165 158 154 149 146 143 137 129 124 117 104 78 60 23 349 312 283 278 279 302 317 329 334 339 338 338 339 343 346 348
90 133 122 26 353 164 146 216 330 194 169 155 149 142 138 147 156 164 160 151 148 144 142 139 135 128 120 109 107 51 53 105 297 270 254 255 285 300 310 323 328 331 333 333 338 342 342 344 344
286 333 160 175 218 116 125 33 349 316 139 144 147 141 151 161 165 163 151 145 143 142 138 134 130 127 125 85 241 233 196 233 236 236 257 283 292 300 309 316 319 323 328 334 335 336 336 335 334
Wind_Speed_850mb
7 8 8 7 6 9 19 8 32 10 13 14 22 21 26 33 12 15 41 32 35 36 43 37 29 27 27 26 28 28 26 31 22 17 17 19 20 20 20 21 21 21 22 22 21 20 21 20 20
5 4 12 11 9 14 16 15 34 15 24 25 19 8 13 11 14 41 40 40 30 32 43 36 29 29 29 29 32 31 30 28 25 18 14 17 16 15 16 17 18 20 21 19 18 20 20 20 22
15 10 7 7 11 21 7 3 17 28 28 21 11 21 16 12 34 31 38 51 30 29 30 35 32 35 33 32 32 29 27 26 18 9 6 9 11 12 12 15 14 17 17 17 18 19 19 19 20
13 10 13 9 24 32 9 9 29 20 8 7 31 18 19 21 25 26 51 47 30 42 35 35 35 38 35 30 28 26 22 16 9 3 3 5 7 10 12 13 14 16 17 16 16 16 16 17 17
16 14 8 15 32 34 13 6 27 17 23 18 14 18 27 17 23 45 50 45 40 37 31 36 39 39 33 28 24 20 16 11 7 5 3 6 10 12 14 15 14 13 13 13 14 14 16 18 21
15 13 8 18 31 20 9 48 24 22 24 24 33 26 16 23 38 47 47 41 37 30 36 38 41 38 32 27 22 17 13 10 7 7 9 11 13 13 13 12 12 12 12 13 15 17 18 19 20
26 9 19 31 31 7 22 8 15 14 22 15 34 14 18 40 41 47 44 40 37 29 37 39 41 36 30 26 22 17 12 11 12 13 15 15 13 12 11 12 12 13 14 16 17 18 20 21 24
34 11 24 32 25 4 21 12 9 25 11 25 8 13 18 54 47 48 44 40 40 31 31 41 38 33 27 23 21 16 13 15 17 17 15 13 12 12 11 11 12 14 15 16 18 20 22 24 26
25 9 20 33 24 10 17 7 6 15 28 15 7 17 15 70 55 52 51 45 45 41 27 30 31 28 24 21 21 17 16 17 17 16 12 10 10 10 8 11 13 13 16 19 20 23 25 26 26
24 17 27 25 17 9 14 12 23 9 26 14 23 25 36 70 62 60 58 54 50 46 39 30 27 23 16 12 18 21 19 14 14 14 14 8 4 3 6 8 11 14 17 20 21 25 26 29 34
25 24 28 10 16 28 12 8 3 14 14 29 43 43 54 63 61 56 51 50 53 52 49 45 42 26 33 20 18 20 18 14 10 9 8 6 2 5 7 13 16 20 21 25 28 31 33 35 38
10 52 38 20 19 26 4 7 7 15 10 16 44 41 58 62 61 53 42 45 55 50 46 40 36 29 25 20 10 9 11 10 10 8 6 4 2 6 8 12 15 20 23 25 26 30 28 31 30
41 18 35 29 17 20 11 11 3 4 14 18 46 43 57 56 53 48 40 33 41 44 46 45 38 30 28 24 25 14 11 11 7 3 4 1 2 6 10 15 16 15 19 23 32 28 31 30 30
55 51 20 35 23 13 7 7 8 11 21 32 35 44 53 54 52 47 43 38 40 35 36 42 41 36 36 34 24 21 15 12 11 5 2 3 6 9 13 12 13 17 21 25 27 29 28 32 26
27 40 24 45 22 10 13 13 12 20 27 34 31 34 46 48 49 48 45 39 40 39 34 35 40 38 31 29 25 21 19 14 8 3 3 7 9 11 12 14 18 22 22 17 22 22 26 28 25
22 20 36 32 24 12 7 10 19 29 36 35 35 35 41 46 48 46 44 40 41 41 40 40 39 38 32 29 25 22 17 12 10 9 12 13 13 13 15 15 22 19 20 22 20 22 23 24 25
14 11 32 27 31 13 15 11 19 42 33 29 36 32 39 42 44 46 47 39 42 43 39 40 38 36 33 29 27 22 19 20 20 19 16 13 12 13 16 18 17 16 17 20 20 20 23 25 26
17 12 37 28 30 35 20 16 12 19 35 24 38 34 38 45 47 43 43 41 39 38 36 34 35 33 33 31 28 27 27 25 20 16 16 15 12 13 17 14 11 11 14 15 17 20 21 25 28
11 29 18 28 15 34 33 24 15 30 29 33 49 46 37 41 45 47 50 43 42 37 36 33 35 31 32 30 29 28 27 23 20 18 14 12 13 13 11 9 8 10 12 16 19 20 23 28 35
22 23 38 18 15 3 24 24 20 17 29 36 36 46 43 43 49 50 49 45 42 42 39 34 31 35 30 23 20 24 25 23 18 15 12 9 8 5 4 5 7 11 14 16 20 25 27 30 36
13 8 11 8 14 5 11 25 34 16 21 35 30 18 40 51 55 56 51 47 43 42 40 39 42 40 35 34 36 34 29 21 18 13 9 5 1 3 5 8 10 12 15 20 25 29 32 32 29
4 3 5 6 28 20 14 13 28 27 16 18 37 37 36 48 55 57 49 45 47 50 49 50 44 40 41 41 39 33 27 26 18 10 5 6 5 5 7 9 11 15 19 23 28 30 31 30 31
9 15 11 5 4 6 7 5 22 30 28 25 30 52 54 51 54 51 48 48 48 45 45 41 39 37 35 31 28 33 30 22 13 13 12 8 6 5 6 8 13 20 26 29 28 27 26 28 27
21 11 10 7 2 5 12 4 10 24 32 27 34 52 62 64 59 52 48 48 45 41 41 39 38 38 40 39 35 31 22 19 21 18 12 8 6 6 8 16 22 26 27 28 28 28 28 28 25
9 6 4 4 3 1 3 15 13 7 16 7 33 50 56 67 71 63 51 43 42 40 40 40 39 39 37 34 32 28 25 23 17 12 7 7 7 12 17 21 26 27 26 26 26 27 27 27 28
18 17 4 1 5 5 7 7 6 10 12 15 25 57 64 61 56 50 46 46 43 44 42 38 36 36 37 37 38 36 31 22 17 16 13 10 13 18 24 29 26 23 22 24 26 27 27 27 27
9 8 5 10 3 6 6 9 11 14 9 14 36 55 51 46 42 48 45 44 43 39 39 40 42 45 46 44 40 34 29 25 22 18 16 23 29 31 23 21 18 19 22 24 25 26 27 27 28
3 13 7 5 8 6 7 6 5 13 18 17 21 40 48 48 50 45 43 41 44 45 47 48 47 46 44 41 37 33 20 14 10 11 12 23 23 20 15 15 17 20 23 24 23 25 28 29 32
6 7 5 0 2 2 7 5 6 13 24 24 23 41 51 55 50 45 40 48 51 53 53 54 51 49 42 30 17 9 7 2 5 19 16 16 14 14 14 16 17 20 21 22 25 27 29 31 32
2 6 8 5 7 0 6 2 7 11 20 38 35 49 50 48 44 47 57 61 61 56 54 48 32 20 17 6 3 10 12 22 20 21 15 14 15 15 16 16 18 20 20 23 25 27 29 29 31
Wind_Direction_850mb
15 67 22 289 254 230 239 205 249 139 144 63 66 50 98 49 26 116 140 155 174 169 153 151 147 144 137 141 141 140 137 136 122 104 88 66 59 65 77 86 99 96 92 85 79 74 65 56 48
330 310 313 267 240 246 236 133 262 101 98 105 95 99 71 79 85 133 138 151 173 165 154 157 155 150 141 136 140 138 136 135 116 99 65 46 49 64 79 91 99 95 84 79 72 62 53 46 43
352 311 265 220 238 249 258 69 115 99 120 142 104 50 57 93 124 133 154 143 165 149 162 163 162 156 147 134 137 134 134 132 127 114 58 38 48 71 87 91 88 91 83 70 59 52 45 39 33
322 267 262 251 252 244 126 291 114 120 119 150 114 84 82 130 136 156 145 146 149 139 183 165 162 159 158 152 145 141 141 146 144 125 70 67 85 88 88 87 76 65 67 60 51 41 31 25 19
309 269 251 232 254 264 125 64 154 165 151 167 168 88 103 110 145 141 144 144 155 170 167 165 161 154 161 160 154 151 151 157 167 172 143 108 96 91 88 87 87 74 61 47 34 23 16 12 12
292 241 257 248 242 251 293 172 162 184 158 135 108 110 120 135 143 146 144 149 154 167 155 155 159 161 161 163 165 166 169 171 168 144 119 108 107 107 101 91 72 53 38 26 18 13 10 8 7
258 271 258 257 246 137 264 141 180 150 136 162 129 115 138 146 155 149 145 151 151 159 152 150 155 160 161 163 168 170 167 159 142 127 117 120 118 103 83 64 49 35 23 16 9 3 0 358 356
258 269 268 254 268 174 318 180 218 156 100 119 152 142 155 154 160 148 148 157 155 155 165 153 153 159 162 167 167 160 148 141 138 135 132 122 105 79 59 50 33 23 13 6 358 354 352 348 344
257 247 234 251 249 205 198 235 204 89 125 108 97 94 162 154 158 153 155 169 159 154 161 157 159 159 164 167 164 155 147 145 146 137 120 100 92 66 42 28 18 8 360 353 348 345 343 339 341
237 210 240 242 344 110 195 261 151 148 137 114 102 129 145 149 160 160 167 174 162 162 166 168 154 146 137 164 164 166 161 160 154 145 119 108 82 55 4 1 359 353 345 341 339 338 340 339 341
233 218 229 260 65 315 161 195 129 203 169 172 154 156 155 154 163 167 182 178 173 170 172 168 160 167 161 184 175 176 174 172 150 121 141 138 65 22 0 354 348 347 342 340 339 347 342 338 341
243 219 238 257 121 287 231 68 196 238 88 146 173 175 160 163 168 172 180 180 175 179 179 176 163 163 168 168 167 185 165 159 159 156 160 118 65 357 353 344 341 344 340 340 331 328 323 320 326
212 230 217 251 167 244 313 245 268 233 146 110 160 164 162 167 170 173 175 185 178 185 184 180 161 172 172 175 176 191 173 166 150 132 126 111 324 337 340 337 341 328 325 312 316 319 323 328 331
204 217 246 229 218 225 263 268 111 201 133 139 156 161 166 170 171 172 172 179 177 176 184 178 167 182 188 182 180 179 167 172 173 176 227 298 319 325 324 331 315 316 312 312 320 322 330 330 333
199 194 231 232 193 232 224 247 202 154 145 147 151 161 168 173 173 174 174 182 174 175 180 181 176 180 187 178 174 168 178 178 157 181 308 291 307 313 321 311 312 314 308 319 312 320 321 326 325
163 184 215 208 188 213 221 243 187 159 146 156 160 162 173 175 176 173 173 174 176 168 180 184 184 182 180 172 172 172 178 163 173 188 232 264 291 305 294 294 308 312 315 321 328 325 333 336 340
187 181 199 181 199 213 192 245 140 155 147 164 155 162 177 178 179 180 173 179 178 170 182 186 182 179 174 172 165 170 174 182 203 219 248 265 281 290 302 314 318 317 318 332 339 343 347 345 345
203 198 194 188 189 206 202 243 139 166 143 192 164 170 181 184 185 178 168 175 171 174 182 186 179 179 179 181 170 179 189 199 226 238 247 268 279 295 306 313 320 330 337 347 353 353 351 341 347
243 198 206 177 193 192 190 223 180 169 172 202 164 166 182 191 188 174 174 172 172 175 173 185 178 181 181 189 182 193 202 225 230 243 264 285 302 307 310 330 347 351 356 0 358 3 359 346 344
259 203 206 203 126 358 198 204 235 164 185 183 160 166 178 183 180 183 173 175 174 170 174 181 184 186 191 191 191 214 219 228 231 236 251 273 293 309 350 10 15 7 9 7 2 356 355 349 348
350 350 162 185 186 283 309 217 203 207 184 179 157 188 176 179 179 175 176 177 179 178 179 180 184 185 177 187 197 202 215 227 218 220 240 252 156 64 41 24 18 19 8 356 350 346 342 345 356
276 173 359 347 163 201 222 212 207 197 189 160 178 194 184 179 173 180 176 172 179 177 180 189 194 192 193 202 211 219 216 215 217 211 188 138 103 57 35 28 16 1 351 344 338 342 344 346 348
145 155 191 19 184 119 204 218 208 185 206 178 174 179 182 190 174 172 170 178 188 188 187 188 191 190 189 191 196 198 206 204 195 161 148 128 106 80 45 11 356 348 342 339 342 346 346 351 358
136 138 94 79 104 185 187 223 256 185 195 176 181 182 182 169 168 168 177 183 184 181 182 185 185 184 184 189 189 197 202 182 162 155 146 116 80 45 11 356 344 339 341 342 347 352 356 357 359
124 115 107 150 161 142 280 187 263 15 356 174 174 170 167 152 156 160 169 177 175 175 176 181 183 179 179 182 181 173 163 150 141 125 117 97 59 17 354 340 337 339 345 348 352 352 352 349 350
184 169 114 5 157 110 359 199 255 86 40 11 121 135 132 147 158 163 169 174 174 175 176 173 169 165 158 153 148 143 135 133 129 110 89 59 24 356 334 328 328 336 346 349 348 346 346 347 347
160 186 312 101 279 107 202 252 282 145 104 85 99 117 126 137 146 152 165 173 172 168 163 160 157 150 144 141 135 131 126 105 86 69 20 335 323 309 304 313 328 336 343 343 343 341 341 343 346
236 132 84 333 146 185 178 262 228 158 156 147 129 126 131 137 145 154 168 165 158 154 149 146 143 137 129 124 117 104 78 60 23 349 312 283 278 279 302 317 329 334 339 338 338 339 343 346 348
90 133 122 26 353 164 146 216 330 194 169 155 149 142 138 147 156 164 160 151 148 144 142 139 135 128 120 109 107 51 53 105 297 270 254 255 285 300 310 323 328 331 333 333 338 342 342 344 344
286 333 160 175 218 116 125 33 349 316 139 144 147 141 151 161 165 163 151 145 143 142 138 134 130 127 125 85 241 233 196 233 236 236 257 283 292 300 309 316 319 323 328 334 335 336 336 335 334